Weather History for Twin Falls, ID

Change the Weather History Date:

Monday, January 20, 2014

  Actual Average Record
Temperature  
Mean Temperature 32 °F -  
Max Temperature 46 °F 38 °F 50 °F (2012)
Min Temperature 17 °F 22 °F -7 °F (1984)
Degree Days  
Heating Degree Days 33 35  
Month to date heating degree days 587 714  
Since 1 July heating degree days 3133 3281  
Cooling Degree Days 0 0  
Month to date cooling degree days 0 0  
Year to date cooling degree days 0 0  
Moisture  
Dew Point 19 °F    
Average Humidity 67    
Maximum Humidity 92    
Minimum Humidity 42    
Precipitation  
Precipitation 0.00 in 0.03 in 0.52 in (1999)
Month to date precipitation 0.28 0.72  
Year to date precipitation 0.28 0.72  
Sea Level Pressure  
Sea Level Pressure 30.40 in    
Wind  
Wind Speed 6 mph (NNE)    
Max Wind Speed 14 mph    
Max Gust Speed 17 mph    
Visibility 4 miles    
Events Fog    
T = Trace of Precipitation, MM = Missing Value Source: NWS Daily Summary

Daily Weather History Graph

Daily Weather History Graph

Search for Another Location

Airport:

Trip Planner

Search our weather history database for the weather conditions in past years. The results will help you decide how hot, cold, wet, or windy it might be!

Date:

Astronomy

Jan. 20, 2014 Rise Set
Actual Time 8:01 AM MST 5:36 PM MST
Civil Twilight 7:31 AM MST 6:07 PM MST
Nautical Twilight 6:56 AM MST 6:41 PM MST
Astronomical Twilight 6:23 AM MST 7:15 PM MST
Moon 10:22 PM MST (1/20) 9:57 AM MST (1/20)
Length of Visible Light 10h 36m
Length of Day
9h 34m
Waning Gibbous, 82% of the Moon is Illuminated
Jan 20
Waning Gibbous
Jan 23
Last Quarter
Jan 30
New
Feb 6
First Quarter
Feb 14
Full

Hourly Weather History & Observations

Time (MST) Temp. Windchill Dew Point Humidity Pressure Visibility Wind Dir Wind Speed Gust Speed Precip Events Conditions
12:53 AM 19.9 °F 12.1 °F 16.0 °F 85% 30.29 in 0.5 mi SSW 5.8 mph - N/A Fog Light Freezing Fog
12:59 AM 19.0 °F 10.0 °F 15.1 °F 85% 30.26 in 2.0 mi West 6.9 mph - N/A   Mostly Cloudy
1:04 AM 19.0 °F 9.0 °F 15.1 °F 85% 30.26 in 0.8 mi West 8.1 mph - N/A   Mist
1:13 AM 21.0 °F 11.4 °F 17.1 °F 85% 30.27 in 0.2 mi West 8.1 mph - N/A Fog Light Freezing Fog
1:53 AM 21.9 °F 14.5 °F 18.0 °F 85% 30.28 in 0.2 mi SSW 5.8 mph - N/A Fog Light Freezing Fog
2:20 AM 19.9 °F 11.1 °F 15.1 °F 81% 30.28 in 0.8 mi NW 6.9 mph - N/A   Haze
2:31 AM 19.9 °F 13.4 °F 16.0 °F 85% 30.27 in 0.2 mi SSE 4.6 mph - N/A Fog Light Freezing Fog
2:40 AM 19.0 °F 11.1 °F 15.1 °F 85% 30.28 in 1.0 mi SE 5.8 mph - N/A   Mist
2:44 AM 18.0 °F - 15.1 °F 88% 30.28 in 3.0 mi Calm Calm - N/A   Mostly Cloudy
2:53 AM 18.0 °F 12.7 °F 12.0 °F 78% 30.32 in 9.0 mi Variable 3.5 mph - N/A   Scattered Clouds
3:12 AM 19.0 °F 8.2 °F 14.0 °F 81% 30.32 in 1.2 mi North 9.2 mph - N/A   Haze
3:14 AM 19.0 °F 9.0 °F 15.1 °F 85% 30.32 in 0.8 mi NNW 8.1 mph - N/A   Mist
3:23 AM 21.9 °F 14.5 °F 18.0 °F 85% 30.32 in 0.2 mi NNW 5.8 mph - N/A Fog Light Freezing Fog
3:53 AM 23.0 °F 18.4 °F 19.0 °F 85% 30.34 in 0.2 mi NNW 3.5 mph - N/A Fog Light Freezing Fog
4:53 AM 21.9 °F 15.7 °F 19.0 °F 89% 30.36 in 0.2 mi SSW 4.6 mph - N/A Fog Light Freezing Fog
5:53 AM 19.9 °F 14.9 °F 16.0 °F 85% 30.42 in 0.2 mi SW 3.5 mph - N/A Fog Light Freezing Fog
6:06 AM 19.0 °F - 14.0 °F 81% 30.36 in 0.8 mi Calm Calm - N/A   Haze
6:27 AM 18.0 °F - 12.9 °F 81% 30.37 in 0.2 mi Calm Calm - N/A   Haze
6:37 AM 18.0 °F - 12.9 °F 81% 30.36 in 0.2 mi Calm Calm - N/A   Haze
6:53 AM 18.0 °F 12.7 °F 12.9 °F 81% 30.45 in 0.2 mi SE 3.5 mph - N/A   Haze
7:53 AM 21.9 °F 12.5 °F 17.1 °F 82% 30.45 in 0.2 mi NE 8.1 mph - N/A   Haze
8:53 AM 21.9 °F 11.0 °F 17.1 °F 82% 30.48 in 0.2 mi ESE 10.4 mph - N/A   Haze
9:53 AM 21.9 °F 14.5 °F 18.0 °F 85% 30.50 in 0.2 mi ENE 5.8 mph - N/A Fog Light Freezing Fog
10:53 AM 26.1 °F 21.9 °F 21.9 °F 84% 30.51 in 0.2 mi East 3.5 mph - N/A Fog Light Freezing Fog
11:09 AM 28.0 °F 24.2 °F 24.1 °F 85% 30.45 in 2.5 mi East 3.5 mph - N/A   Mostly Cloudy
11:18 AM 28.9 °F 22.8 °F 24.1 °F 82% 30.45 in 5.0 mi East 5.8 mph - N/A   Haze
11:53 AM 32.0 °F 24.8 °F 26.1 °F 79% 30.52 in 8.0 mi ENE 8.1 mph - N/A   Clear
12:53 PM 35.1 °F 27.4 °F 27.0 °F 72% 30.50 in 10.0 mi NE 10.4 mph - N/A   Clear
1:53 PM 43.0 °F 37.7 °F 24.1 °F 47% 30.46 in 10.0 mi ENE 9.2 mph - N/A   Clear
2:53 PM 46.0 °F 41.0 °F 24.1 °F 42% 30.45 in 10.0 mi ENE 10.4 mph - N/A   Clear
3:53 PM 46.0 °F 41.0 °F 24.1 °F 42% 30.45 in 10.0 mi NE 10.4 mph - N/A   Clear
4:53 PM 43.0 °F 38.2 °F 24.1 °F 47% 30.46 in 10.0 mi NE 8.1 mph - N/A   Clear
5:53 PM 34.0 °F 29.8 °F 21.9 °F 61% 30.49 in 10.0 mi NE 4.6 mph - N/A   Clear
6:53 PM 27.0 °F - 18.0 °F 69% 30.52 in 10.0 mi Calm Calm - N/A   Clear
7:53 PM 33.1 °F 27.7 °F 24.1 °F 70% 30.50 in 9.0 mi West 5.8 mph - N/A   Clear
8:53 PM 30.9 °F 26.2 °F 24.1 °F 76% 30.52 in 8.0 mi West 4.6 mph - N/A   Clear
9:53 PM 27.0 °F 21.6 °F 21.9 °F 81% 30.53 in 6.0 mi West 4.6 mph - N/A   Haze
10:53 PM 19.9 °F 14.9 °F 16.0 °F 85% 30.55 in 6.0 mi SW 3.5 mph - N/A   Clear
11:53 PM 28.0 °F 24.2 °F 23.0 °F 81% 30.51 in 7.0 mi WNW 3.5 mph - N/A   Clear